This demonstration page uses our WeatherBlox Daily Observations layout. Learn more.

Left ArrowRight Arrow

38.80484, -77.04692

Hourly Observations for February 11, 2020

Temp ( °F °C ) Dew Point ( °F °C ) Humidity (%) Winds ( mph kmh ) Pressure ( in mb ) Visibility ( mi km ) Precip ( " mm )
12:10 am 00:10 Cloudy with Light Rain 48 8.9 48 8.9 100 100 S 9 15 30.08 1019 4 6 0.03 0.76
12:40 am 00:40 Cloudy with Light Rain 49 9.4 48 8.9 97 97 S 10 17 30.07 1018 5 8 0.04 1.02
12:52 am 00:52 Cloudy with Light Rain 49 9.4 48 8.9 97 97 S 10 17 30.06 1018 5 8 0.05 1.27
1:52 am 01:52 Cloudy with Drizzle 49 9.4 48 8.9 97 97 S 9 15 30.03 1017 3 5 0.02 0.51
2:52 am 02:52 Cloudy with Drizzle 50 10 49 9.4 96 96 S 8 13 30.01 1016 4 6 0.03 0.76
3:15 am 03:15 Cloudy with Light Rain 49 9.4 49 9.4 100 100 S 9 15 30.00 1016 3 4 0.02 0.51
3:38 am 03:38 Cloudy with Drizzle 51 10.6 50 10 96 96 S 13 20 29.98 1015 4 6 0.04 1.02
3:45 am 03:45 Cloudy with Drizzle 50 10 49 9.4 96 96 S 12 19 29.98 1015 3 5 0.04 1.02
3:52 am 03:52 Cloudy with Drizzle 49 9.4 49 9.4 100 100 S 10 17 29.97 1015 3 5 0.04 1.02
3:59 am 03:59 Cloudy with Drizzle 50 10 49 9.4 96 96 S 10 17 29.97 1015 5 8 0.01 0.25
4:52 am 04:52 Cloudy with Light Rain 51 10.6 50 10 96 96 S 7 11 29.97 1015 4 6 0.03 0.76
5:42 am 05:42 Cloudy with Light Rain 52 11.1 51 10.6 97 97 SSW 3 6 29.98 1015 5 8 0.04 1.02
5:52 am 05:52 Cloudy with Rain 51 10.6 51 10.6 100 100 SW 3 6 29.98 1015 3 5 0.07 1.78
5:56 am 05:56 Cloudy with Rain 52 11.1 51 10.6 97 97 SW 3 6 29.99 1016 3 4 0.01 0.25
6:16 am 06:16 Cloudy with Rain 52 11.1 51 10.6 97 97 SSW 5 7 29.98 1015 3 5 0.08 2.03
6:35 am 06:35 Cloudy with Light Rain 52 11.1 51 10.6 97 97 Calm 29.98 1015 4 6 0.14 3.56
6:49 am 06:49 Cloudy with Light Rain 52 11 50 10 94 94 Calm 29.97 1015 3 4 0.15 3.81
6:52 am 06:52 Cloudy with Light Rain 51 10.6 50 10 96 96 Calm 29.97 1015 3 4 0.16 4.06
6:56 am 06:56 Cloudy with Light Rain 51 10.6 50 10 96 96 SE 3 6 29.97 1015 2 2 0.00 0.00
7:07 am 07:07 Cloudy with Light Rain 51 10.6 50 10 96 96 S 5 7 29.96 1015 2 2 0.00 0.00
7:42 am 07:42 Cloudy with Mist and Fog 52 11.1 51 10.6 97 97 S 5 7 29.96 1015 2 3 0.00 0.00
7:52 am 07:52 Cloudy with Mist and Fog 52 11.1 51 10.6 97 97 S 6 9 29.96 1015 3 4 0.00 0.00
8:02 am 08:02 Cloudy with Light Rain 52 11.1 51 10.6 97 97 S 7 11 29.96 1015 2 3 0.00 0.00
8:42 am 08:42 Cloudy with Light Rain 53 11.7 52 11.1 96 96 Calm 29.95 1014 2 3 0.01 0.25
8:52 am 08:52 Cloudy with Light Rain 53 11.7 52 11.1 96 96 Calm 29.95 1014 2 3 0.02 0.51
9:16 am 09:16 Cloudy with Light Rain 52 11.1 51 10.6 97 97 Calm 29.94 1014 2 3 0.00 0.00
9:52 am 09:52 Cloudy with Light Rain 52 11.1 51 10.6 97 97 Calm 29.93 1014 2 3 0.02 0.51
10:22 am 10:22 Cloudy with Light Rain 54 12.2 53 11.7 97 97 NNW 3 6 29.93 1014 3 4 0.01 0.25
10:49 am 10:49 Cloudy with Light Rain 55 13 54 12 94 94 Calm 29.93 1014 3 4 0.02 0.51
10:52 am 10:52 Cloudy with Light Rain 55 12.8 53 11.7 93 93 Calm 29.93 1014 3 4 0.02 0.51
11:40 am 11:40 Cloudy with Light Rain 55 12.8 53 11.7 93 93 N 6 9 29.92 1013 3 5 0.03 0.76
11:47 am 11:47 Cloudy with Light Rain 55 13 54 12 94 94 NNE 5 7 29.91 1013 4 6 0.03 0.76
11:52 am 11:52 Cloudy with Light Rain 55 12.8 53 11.7 93 93 Calm 29.91 1013 4 6 0.03 0.76
12:00 pm 12:00 Cloudy with Light Rain 55 12.8 53 11.7 93 93 Calm 29.90 1013 4 6 0.01 0.25
12:07 pm 12:07 Cloudy with Light Rain 55 12.8 53 11.7 93 93 Calm 29.90 1013 4 6 0.01 0.25
12:15 pm 12:15 Cloudy with Light Rain 53 11.7 53 11.7 100 100 Calm 29.89 1012 4 6 0.01 0.25
12:22 pm 12:22 Cloudy with Light Rain 53 11.7 52 11.1 96 96 NE 3 6 29.89 1012 4 6 0.01 0.25
12:43 pm 12:43 Cloudy with Light Rain 55 12.8 53 11.7 93 93 NNW 7 11 29.88 1012 5 8 0.02 0.51
12:52 pm 12:52 Cloudy with Light Rain 55 12.8 53 11.7 93 93 NW 7 11 29.88 1012 6 10 0.02 0.51
1:02 pm 13:02 Cloudy with Light Rain 55 12.8 53 11.7 93 93 NW 10 17 29.88 1012 6 10 0.00 0.00
1:40 pm 13:40 Cloudy 56 13.3 53 11.7 90 90 NNW 10 17 29.86 1011 9 14 0.00 0.00
1:52 pm 13:52 Cloudy 56 13.3 53 11.7 90 90 NNW 9 15 29.86 1011 10 16 0.00 0.00
2:52 pm 14:52 Cloudy 57 13.9 53 11.7 87 87 N 6 9 29.83 1010 10 16 0.00 0.00
2:54 pm 14:54 Cloudy 57 13.9 53 11.7 87 87 N 7 11 29.84 1011 10 16 0.00 0.00
2:57 pm 14:57 Cloudy 57 13.9 53 11.7 87 87 N 8 13 29.84 1011 10 16 0.00 0.00
3:44 pm 15:44 Cloudy 57 13.9 51 10.6 81 81 N 8 13 29.85 1011 10 16 0.00 0.00
3:52 pm 15:52 Cloudy 57 13.9 51 10.6 81 81 N 8 13 29.85 1011 10 16 0.00 0.00
4:52 pm 16:52 Cloudy 56 13.3 50 10 81 81 NW 10 17 29.86 1011 10 16 0.00 0.00
5:24 pm 17:24 Cloudy 55 12.8 49 9.4 80 80 NNW 14 22 29.88 1012 10 16 0.00 0.00
5:52 pm 17:52 Cloudy 55 12.8 49 9.4 80 80 NW 8 13 29.88 1012 10 16 0.00 0.00
6:52 pm 18:52 Cloudy 53 11.7 47 8.3 80 80 NNW 12 19 29.92 1013 10 16 0.00 0.00
7:52 pm 19:52 Cloudy 53 11.7 47 8.3 80 80 NNW 8 13 29.94 1014 10 16 0.00 0.00
8:52 pm 20:52 Cloudy 53 11.7 44 6.7 72 72 WNW 8 13 29.97 1015 10 16 0.00 0.00
9:52 pm 21:52 Cloudy 51 10.6 42 5.6 71 71 N 16 26 29.98 1015 10 16 0.00 0.00
10:52 pm 22:52 Cloudy 49 9.4 37 2.8 64 64 NNW 13 20 30.02 1017 10 16 0.00 0.00
11:52 pm 23:52 Cloudy 49 9.4 36 2.2 61 61 NNW 14 22 30.06 1018 10 16 0.00 0.00

Powered by AerisWeather